This demonstration page uses our WeatherBlox Daily Observations layout. Learn more.

Left ArrowRight Arrow

Hourly Observations for April 2, 2018

Temp ( °F °C ) Dew Point ( °F °C ) Humidity (%) Winds ( mph kmh ) Pressure ( in mb ) Visibility ( mi km ) Precip ( " mm )
12:53 am 00:53 Clear 21 -6.1 18 -7.8 88 88 S 8 13 30.11 1020 10 16 0.00 0.00
1:53 am 01:53 Clear 19 -7.2 17 -8.3 92 92 S 6 9 30.09 1019 10 16 0.00 0.00
2:53 am 02:53 Clear 19 -7.2 17 -8.3 92 92 S 7 11 30.06 1018 10 16 0.00 0.00
3:53 am 03:53 Clear 18 -7.8 16 -8.9 92 92 S 6 9 30.04 1017 10 16 0.00 0.00
4:53 am 04:53 Clear with Mist and Fog 19 -7.2 17 -8.3 92 92 SSE 7 11 29.97 1015 5 8 0.00 0.00
5:27 am 05:27 Partly Cloudy with Mist and Fog 17 -8.3 16 -8.9 95 95 SE 8 13 30.03 1017 3 5 0.00 0.00
5:35 am 05:35 Mostly Cloudy with Mist and Fog 18 -7.8 16 -8.9 92 92 SSE 9 15 30.03 1017 3 5 0.00 0.00
5:44 am 05:44 Cloudy with Mist and Fog 18 -7.8 17 -8.3 96 96 SSE 10 17 30.03 1017 2 3 0.00 0.00
5:53 am 05:53 Cloudy with Mist and Fog 18 -7.8 17 -8.3 96 96 SSE 9 15 29.96 1014 4 6 0.00 0.00
6:06 am 06:06 Cloudy with Mist and Fog 18 -8 18 -8 100 100 S 8 13 30.03 1017 2 3 0.00 0.00
6:30 am 06:30 Cloudy with Mist and Fog 19 -7.2 19 -7.2 100 100 S 8 13 30.03 1017 3 4 0.00 0.00
6:37 am 06:37 Cloudy with Mist and Fog 19 -7.2 19 -7.2 100 100 S 8 13 30.00 1016 4 6 0.00 0.00
6:53 am 06:53 Cloudy with Mist and Fog 20 -6.7 20 -6.7 100 100 S 9 15 29.96 1014 5 8 0.00 0.00
7:53 am 07:53 Cloudy with Mist and Fog 22 -5.6 22 -5.6 100 100 S 9 15 29.93 1014 6 10 0.00 0.00
8:53 am 08:53 Cloudy 23 -5 22 -5.6 96 96 S 14 22 29.88 1012 9 14 0.00 0.00
9:00 am 09:00 Cloudy 23 -5 22 -5.6 96 96 S 15 24 29.91 1013 9 14 0.00 0.00
9:53 am 09:53 Cloudy with Mist and Fog 24 -4.4 22 -5.6 91 91 S 18 30 29.82 1010 6 10 0.00 0.00
10:53 am 10:53 Cloudy 26 -3.3 23 -5 88 88 S 21 33 29.78 1008 9 14 0.00 0.00
11:53 am 11:53 Cloudy 28 -2.2 25 -3.9 88 88 S 13 20 29.79 1009 10 16 0.00 0.00
12:19 pm 12:19 Cloudy 28 -2 25 -4 86 86 S 16 26 29.80 1009 10 16 0.00 0.00
12:50 pm 12:50 Cloudy 30 -1 27 -3 86 86 SSE 15 24 29.80 1009 10 16 0.00 0.00
12:53 pm 12:53 Cloudy 32 0 27 -2.8 82 82 S 12 19 29.75 1007 10 16 0.00 0.00
1:53 pm 13:53 Mostly Sunny 35 1.7 29 -1.7 78 78 SSE 9 15 29.71 1006 10 16 0.00 0.00
2:53 pm 14:53 Sunny 37 2.8 30 -1.1 76 76 SSE 12 19 29.68 1005 10 16 0.00 0.00
3:53 pm 15:53 Sunny 41 5 31 -0.6 67 67 SSE 13 20 29.62 1003 10 16 0.00 0.00
4:53 pm 16:53 Sunny 44 6.7 32 0 63 63 SSE 12 19 29.60 1002 10 16 0.00 0.00
5:53 pm 17:53 Sunny 44 6.7 34 1.1 68 68 ESE 10 17 29.59 1002 10 16 0.00 0.00
6:53 pm 18:53 Sunny 41 5 33 0.6 73 73 ESE 12 19 29.57 1001 10 16 0.00 0.00
7:53 pm 19:53 Sunny 35 1.7 31 -0.6 85 85 E 12 19 29.58 1002 10 16 0.00 0.00
8:41 pm 20:41 Partly Cloudy 32 0 31 -0.6 96 96 E 13 20 29.62 1003 10 16 0.00 0.00
8:50 pm 20:50 Mostly Cloudy 32 0 30 -1 93 93 E 17 28 29.62 1003 10 16 0.00 0.00
8:53 pm 20:53 Mostly Cloudy 32 0 30 -1.1 92 92 E 17 28 29.60 1002 10 16 0.00 0.00
9:36 pm 21:36 Cloudy 31 -0.6 31 -0.6 100 100 E 16 26 29.68 1005 8 13 0.00 0.00
9:53 pm 21:53 Cloudy with Mist and Fog 31 -0.6 31 -0.6 100 100 E 15 24 29.65 1004 5 8 0.00 0.00
10:34 pm 22:34 Cloudy with Mist and Fog 32 0 30 -1 93 93 E 15 24 29.71 1006 2 3 0.00 0.00
10:44 pm 22:44 Cloudy with Mist and Fog 30 -1 30 -1 100 100 E 15 24 29.68 1005 1 2 0.00 0.00
10:53 pm 22:53 Cloudy with Mist and Fog 31 -0.6 31 -0.6 100 100 E 17 28 29.65 1004 1 1 0.00 0.00
11:53 pm 23:53 Mostly Cloudy with Freezing Fog 31 -0.6 31 -0.6 100 100 E 12 19 29.65 1004 1 1 0.00 0.00

Powered by AerisWeather